User: anonymous   Login
Location: Ostrava
(49.8330°N, 18.2830°E)
Time: 15:29:18
(UTC+02:00)
Language:

Explorer 7 - Orbit

View from above orbital plane
View from above orbital plane
View from above satellite
View from above satellite

Ground track
Ground track

The orbit data is extracted from the following two-line orbital elements,

1 00022U 59009A   15144.78390362  .00002414  00000-0  21466-3 0  9993
2 00022 050.2826 132.0811 0147810 038.9217 322.2261 14.91997203948606
Epoch (UTC): 24 May 2015 18:48:49
Eccentricity: 0.0147810
inclination: 50.2826°
perigee height: 488 km
apogee height: 695 km
right ascension of ascending node: 132.0811°
argument of perigee: 38.9217°
revolutions per day: 14.91997203
mean anomaly at epoch: 322.2261°
orbit number at epoch: 94860

The dashed part of the orbit path shows where the satellite is in the earth's shadow,  

DLR